{"data":{"norad_id":61847,"epoch":"2026-05-25T00:44:19.926816Z","epoch_age_seconds":71820,"freshness":"FRESH","line1":"1 61847U 24202C   26145.03078619  .00000964  00000+0  44542-4 0  9999","line2":"2 61847  43.0014 155.5548 0001517 271.2716  88.7962 15.27578487 87147","mean_motion":15.27578487,"eccentricity":0.0001517,"inclination_deg":43.0014,"raan_deg":155.5548,"arg_perigee_deg":271.2716,"mean_anomaly_deg":88.7962,"bstar":4.4542e-5,"rev_number":8714,"period_min":94.266842080763,"perigee_km":482.01278389165,"apogee_km":484.09446912773,"semimajor_km":6861.1906265097,"source":"CELESTRAK","updated_at":"2026-05-25T13:38:19.449700Z"}}